Погода в Вишневке

Россия / Кемеровская область (Кузбасс)     54°24′41″N   86°23′51″E
темп.,
°C
ветер,
м/с
пор.,
м/с
влажн.,
%
обл.,
%
осадки,
мм/ч
давл.,
гПа
погр.,
м
29 ноября, пн
пн2901:00−10ю389598 0.1 1039179
04:00−11ю3695100 0.1 1039105
07:00−10ю4793100 0.2 1039177
10:00−8ю4793100 0.1 1038223
13:00−7ююв369067 0.1 1036210
16:00−9юв229388 0.0 103537
19:00−12ююв3493100 0.0 103545
22:00−13ююв2291100 0.0 103528
30 ноября, вт
вт3001:00−13ююв2290100 0.0 103328
04:00−13ююв2290100 0.0 103230
07:00−13ююв2290100 0.0 103124
10:00−13ююв2391100 0.0 103135
13:00−7ююв258884 0.0 1030103
16:00−7ююв359098 0.0 102972
19:00−10ююв358958 0.0 102949
22:00−12ююв358548 0.0 103050
1 декабря, ср
ср101:00−14ююв33886 0.0 103033
04:00−14юв23895 0.0 103126
07:00−15ююв33925 0.0 103128
10:00−16юв22939 0.0 103225
13:00−8ююв37878 0.0 1031137
16:00−9юв229154 0.0 103128
19:00−12ююв23885 0.0 103127
22:00−12юв228764 0.0 103028
2 декабря, чт
чт201:00−13юв228997 0.0 103010
04:00−12юв2286100 0.0 102914
07:00−13юв2290100 0.0 102920
10:00−13вюв2291100 0.0 102832
13:00−6ююв3785100 0.0 1026109
16:00−7юв3486100 0.0 102547
19:00−10юв3290100 0.0 102531
22:00−11юв34865 0.0 102439
3 декабря, пт
пт301:00−9юв36786 0.0 102274
04:00−8юв477640 0.0 102175
07:00−8юв487388 0.0 101997
10:00−8юв411737 0.0 1017128
13:00−3ююв41176100 0.0 1014180
16:00+2ююз61459100 0.0 1013361
19:000юз71796100 0.3 1013790
22:00+1юз71495100 0.5 1015848